Time,TemperatureF,DewpointF,PressureIn,WindDirection,WindDirectionDegrees,WindSpeedMPH,WindSpeedGustMPH,Humidity,HourlyPrecipIn,Conditions,Clouds,dailyrainin,SoftwareType,DateUTC
2013-03-20 00:04:00,62.6,29.0,30.01,SSW,193,3.0,-999.0,28,-99.99,,,0.00,weatherlink.com 1.10,2013-03-20 07:04:00,
2013-03-20 00:19:00,62.7,29.0,29.99,South,186,5.0,-999.0,28,-99.99,,,0.00,weatherlink.com 1.10,2013-03-20 07:19:00,
2013-03-20 00:34:00,62.4,32.0,29.99,South,183,5.0,-999.0,32,-99.99,,,0.00,weatherlink.com 1.10,2013-03-20 07:34:00,
2013-03-20 00:49:00,62.7,32.0,30.00,SW,228,5.0,-999.0,32,-99.99,,,0.00,weatherlink.com 1.10,2013-03-20 07:49:00,
2013-03-20 01:05:00,62.1,33.0,29.99,West,265,9.0,-999.0,34,-99.99,,,0.00,weatherlink.com 1.10,2013-03-20 08:05:00,
2013-03-20 01:20:00,62.4,34.0,30.00,West,261,11.0,-999.0,35,-99.99,,,0.00,weatherlink.com 1.10,2013-03-20 08:20:00,
2013-03-20 01:35:00,61.8,35.0,30.01,SW,214,8.0,-999.0,37,-99.99,,,0.00,weatherlink.com 1.10,2013-03-20 08:35:00,
2013-03-20 01:50:00,60.4,35.0,30.00,West,262,12.0,-999.0,39,-99.99,,,0.00,weatherlink.com 1.10,2013-03-20 08:50:00,
2013-03-20 02:05:00,59.6,35.0,29.99,SW,232,17.0,-999.0,40,-99.99,,,0.00,weatherlink.com 1.10,2013-03-20 09:05:00,
2013-03-20 02:20:00,59.2,35.0,29.99,West,277,19.0,-999.0,41,-99.99,,,0.00,weatherlink.com 1.10,2013-03-20 09:20:00,
2013-03-20 02:35:00,58.7,36.0,30.00,WSW,252,14.0,-999.0,43,-99.99,,,0.00,weatherlink.com 1.10,2013-03-20 09:35:00,
2013-03-20 02:51:00,58.4,37.0,30.00,SW,221,11.0,-999.0,45,-99.99,,,0.00,weatherlink.com 1.10,2013-03-20 09:51:00,
2013-03-20 03:05:00,57.5,37.0,29.99,WSW,250,12.0,-999.0,47,-99.99,,,0.00,weatherlink.com 1.10,2013-03-20 10:05:00,
2013-03-20 03:20:00,56.2,38.0,29.99,WSW,239,10.0,-999.0,51,-99.99,,,0.00,weatherlink.com 1.10,2013-03-20 10:20:00,
2013-03-20 03:35:00,55.4,38.0,30.00,West,261,10.0,-999.0,53,-99.99,,,0.00,weatherlink.com 1.10,2013-03-20 10:35:00,
2013-03-20 03:51:00,54.5,38.0,29.99,WSW,246,12.0,-999.0,55,-99.99,,,0.00,weatherlink.com 1.10,2013-03-20 10:51:00,
2013-03-20 04:06:00,54.2,39.0,29.99,SW,232,3.0,-999.0,57,-99.99,,,0.00,weatherlink.com 1.10,2013-03-20 11:06:00,
2013-03-20 04:21:00,53.8,39.0,29.99,WSW,241,9.0,-999.0,57,-99.99,,,0.00,weatherlink.com 1.10,2013-03-20 11:21:00,
2013-03-20 04:36:00,53.8,39.0,29.98,SW,235,8.0,-999.0,57,-99.99,,,0.00,weatherlink.com 1.10,2013-03-20 11:36:00,
2013-03-20 04:51:00,53.9,39.0,29.99,West,262,10.0,-999.0,57,-99.99,,,0.00,weatherlink.com 1.10,2013-03-20 11:51:00,
2013-03-20 05:06:00,54.2,38.0,29.99,WSW,249,6.0,-999.0,55,-99.99,,,0.00,weatherlink.com 1.10,2013-03-20 12:06:00,
2013-03-20 05:21:00,54.2,38.0,29.98,SW,229,7.0,-999.0,55,-99.99,,,0.00,weatherlink.com 1.10,2013-03-20 12:21:00,
2013-03-20 05:36:00,54.5,38.0,29.98,SW,217,0.0,-999.0,54,-99.99,,,0.00,weatherlink.com 1.10,2013-03-20 12:36:00,
2013-03-20 05:51:00,54.5,37.0,29.98,West,267,6.0,-999.0,53,-99.99,,,0.00,weatherlink.com 1.10,2013-03-20 12:51:00,
2013-03-20 06:06:00,54.5,37.0,29.98,West,270,0.0,-999.0,53,-99.99,,,0.00,weatherlink.com 1.10,2013-03-20 13:06:00,
2013-03-20 06:36:00,54.5,37.0,29.99,WSW,252,0.0,-999.0,53,-99.99,,,0.00,weatherlink.com 1.10,2013-03-20 13:36:00,
2013-03-20 06:52:00,54.1,38.0,30.00,WSW,244,0.0,-999.0,54,-99.99,,,0.00,weatherlink.com 1.10,2013-03-20 13:52:00,
2013-03-20 07:07:00,54.1,38.0,30.00,WSW,244,0.0,-999.0,55,-99.99,,,0.00,weatherlink.com 1.10,2013-03-20 14:07:00,
2013-03-20 07:22:00,55.1,38.0,30.01,West,261,0.0,-999.0,53,-99.99,,,0.00,weatherlink.com 1.10,2013-03-20 14:22:00,
2013-03-20 07:37:00,55.7,38.0,30.00,West,261,7.0,-999.0,52,-99.99,,,0.00,weatherlink.com 1.10,2013-03-20 14:37:00,
2013-03-20 07:52:00,56.6,38.0,30.00,WSW,257,10.0,-999.0,50,-99.99,,,0.00,weatherlink.com 1.10,2013-03-20 14:52:00,
2013-03-20 08:07:00,57.2,38.0,30.00,WSW,257,11.0,-999.0,49,-99.99,,,0.00,weatherlink.com 1.10,2013-03-20 15:07:00,
2013-03-20 08:22:00,58.3,38.0,30.01,SW,231,5.0,-999.0,48,-99.99,,,0.00,weatherlink.com 1.10,2013-03-20 15:22:00,
2013-03-20 08:37:00,59.2,38.0,30.01,SW,235,6.0,-999.0,46,-99.99,,,0.00,weatherlink.com 1.10,2013-03-20 15:37:00,
2013-03-20 08:52:00,60.2,38.0,30.01,WSW,247,19.0,-999.0,44,-99.99,,,0.00,weatherlink.com 1.10,2013-03-20 15:52:00,
2013-03-20 09:07:00,61.3,38.0,30.01,WSW,248,17.0,-999.0,43,-99.99,,,0.00,weatherlink.com 1.10,2013-03-20 16:07:00,
2013-03-20 09:22:00,62.7,38.0,30.01,SW,231,11.0,-999.0,40,-99.99,,,0.00,weatherlink.com 1.10,2013-03-20 16:22:00,
2013-03-20 09:37:00,63.1,38.0,30.01,WSW,248,7.0,-999.0,39,-99.99,,,0.00,weatherlink.com 1.10,2013-03-20 16:37:00,
2013-03-20 10:08:00,64.7,36.0,30.00,SW,236,14.0,-999.0,35,-99.99,,,0.00,weatherlink.com 1.10,2013-03-20 17:08:00,
2013-03-20 10:23:00,66.4,36.0,30.00,WSW,252,15.0,-999.0,32,-99.99,,,0.00,weatherlink.com 1.10,2013-03-20 17:23:00,
2013-03-20 10:38:00,67.4,34.0,30.00,SW,220,12.0,-999.0,29,-99.99,,,0.00,weatherlink.com 1.10,2013-03-20 17:38:00,
2013-03-20 10:53:00,68.9,33.0,29.99,WSW,243,12.0,-999.0,27,-99.99,,,0.00,weatherlink.com 1.10,2013-03-20 17:53:00,
2013-03-20 11:09:00,69.6,33.0,29.98,West,271,13.0,-999.0,26,-99.99,,,0.00,weatherlink.com 1.10,2013-03-20 18:09:00,
2013-03-20 11:23:00,69.6,31.0,29.98,SW,234,14.0,-999.0,24,-99.99,,,0.00,weatherlink.com 1.10,2013-03-20 18:23:00,
2013-03-20 11:38:00,70.4,32.0,29.98,WSW,247,15.0,-999.0,24,-99.99,,,0.00,weatherlink.com 1.10,2013-03-20 18:38:00,
2013-03-20 11:54:00,70.9,31.0,29.98,WSW,246,17.0,-999.0,23,-99.99,,,0.00,weatherlink.com 1.10,2013-03-20 18:54:00,
2013-03-20 12:11:00,71.8,25.0,29.97,West,281,15.0,-999.0,17,-99.99,,,0.00,weatherlink.com 1.10,2013-03-20 19:11:00,
2013-03-20 12:24:00,71.3,26.0,29.97,WSW,249,23.0,-999.0,18,-99.99,,,0.00,weatherlink.com 1.10,2013-03-20 19:24:00,
2013-03-20 12:39:00,70.8,29.0,29.97,SSW,213,15.0,-999.0,21,-99.99,,,0.00,weatherlink.com 1.10,2013-03-20 19:39:00,
2013-03-20 12:54:00,71.5,28.0,29.98,WSW,253,29.0,-999.0,20,-99.99,,,0.00,weatherlink.com 1.10,2013-03-20 19:54:00,
2013-03-20 13:11:00,72.0,23.0,29.97,WSW,251,16.0,-999.0,16,-99.99,,,0.00,weatherlink.com 1.10,2013-03-20 20:11:00,
2013-03-20 13:25:00,71.1,25.0,29.97,WSW,247,21.0,-999.0,18,-99.99,,,0.00,weatherlink.com 1.10,2013-03-20 20:25:00,
2013-03-20 13:40:00,71.3,26.0,29.97,WSW,248,18.0,-999.0,18,-99.99,,,0.00,weatherlink.com 1.10,2013-03-20 20:40:00,
2013-03-20 13:55:00,72.1,28.0,29.96,West,273,12.0,-999.0,19,-99.99,,,0.00,weatherlink.com 1.10,2013-03-20 20:55:00,
2013-03-20 14:10:00,72.7,29.0,29.95,WNW,290,19.0,-999.0,20,-99.99,,,0.00,weatherlink.com 1.10,2013-03-20 21:10:00,
2013-03-20 14:26:00,73.9,29.0,29.94,West,279,22.0,-999.0,19,-99.99,,,0.00,weatherlink.com 1.10,2013-03-20 21:26:00,
2013-03-20 14:40:00,73.9,29.0,29.94,West,265,16.0,-999.0,19,-99.99,,,0.00,weatherlink.com 1.10,2013-03-20 21:40:00,
2013-03-20 14:57:00,73.3,31.0,29.94,WNW,301,19.0,-999.0,21,-99.99,,,0.00,weatherlink.com 1.10,2013-03-20 21:57:00,
2013-03-20 15:11:00,72.5,31.0,29.93,West,281,17.0,-999.0,22,-99.99,,,0.00,weatherlink.com 1.10,2013-03-20 22:11:00,
2013-03-20 15:26:00,72.1,32.0,29.95,WSW,238,16.0,-999.0,23,-99.99,,,0.00,weatherlink.com 1.10,2013-03-20 22:26:00,
2013-03-20 15:41:00,72.0,32.0,29.95,WSW,258,19.0,-999.0,23,-99.99,,,0.00,weatherlink.com 1.10,2013-03-20 22:41:00,
2013-03-20 16:12:00,68.9,33.0,29.97,SSW,207,15.0,-999.0,26,-99.99,,,0.00,weatherlink.com 1.10,2013-03-20 23:12:00,
2013-03-20 16:42:00,68.8,31.0,29.97,WSW,254,19.0,-999.0,25,-99.99,,,0.00,weatherlink.com 1.10,2013-03-20 23:42:00,
2013-03-20 16:57:00,67.4,33.0,29.96,West,271,15.0,-999.0,28,-99.99,,,0.00,weatherlink.com 1.10,2013-03-20 23:57:00,
2013-03-20 17:12:00,66.8,33.0,29.97,WSW,252,17.0,-999.0,28,-99.99,,,0.00,weatherlink.com 1.10,2013-03-21 00:12:00,
2013-03-20 17:27:00,66.4,30.0,29.96,West,259,12.0,-999.0,26,-99.99,,,0.00,weatherlink.com 1.10,2013-03-21 00:27:00,
2013-03-20 17:42:00,66.0,29.0,29.97,West,259,12.0,-999.0,25,-99.99,,,0.00,weatherlink.com 1.10,2013-03-21 00:42:00,
2013-03-20 17:58:00,65.3,27.0,29.97,West,264,14.0,-999.0,24,-99.99,,,0.00,weatherlink.com 1.10,2013-03-21 00:58:00,
2013-03-20 18:44:00,63.7,30.0,29.97,West,261,12.0,-999.0,28,-99.99,,,0.00,weatherlink.com 1.10,2013-03-21 01:44:00,
2013-03-20 18:58:00,62.7,33.0,29.97,WSW,237,15.0,-999.0,33,-99.99,,,0.00,weatherlink.com 1.10,2013-03-21 01:58:00,
2013-03-20 19:29:00,62.0,34.0,29.96,West,262,15.0,-999.0,35,-99.99,,,0.00,weatherlink.com 1.10,2013-03-21 02:29:00,
2013-03-20 19:44:00,61.5,35.0,29.96,WSW,248,3.0,-999.0,38,-99.99,,,0.00,weatherlink.com 1.10,2013-03-21 02:44:00,
2013-03-20 20:01:00,61.0,36.0,29.95,SW,232,9.0,-999.0,40,-99.99,,,0.00,weatherlink.com 1.10,2013-03-21 03:01:00,
2013-03-20 20:14:00,60.5,35.0,29.95,West,276,5.0,-999.0,38,-99.99,,,0.00,weatherlink.com 1.10,2013-03-21 03:14:00,
2013-03-20 20:30:00,61.0,34.0,29.95,SW,224,10.0,-999.0,37,-99.99,,,0.00,weatherlink.com 1.10,2013-03-21 03:30:00,
2013-03-20 20:45:00,60.9,34.0,29.95,WSW,237,0.0,-999.0,36,-99.99,,,0.00,weatherlink.com 1.10,2013-03-21 03:45:00,
2013-03-20 20:59:00,60.9,34.0,29.95,East,86,0.0,-999.0,37,-99.99,,,0.00,weatherlink.com 1.10,2013-03-21 03:59:00,
2013-03-20 21:14:00,60.4,35.0,29.94,SSW,203,1.0,-999.0,39,-99.99,,,0.00,weatherlink.com 1.10,2013-03-21 04:14:00,
2013-03-20 21:30:00,60.1,36.0,29.95,WSW,241,9.0,-999.0,40,-99.99,,,0.00,weatherlink.com 1.10,2013-03-21 04:30:00,
2013-03-20 21:45:00,59.5,36.0,29.95,SW,224,2.0,-999.0,41,-99.99,,,0.00,weatherlink.com 1.10,2013-03-21 04:45:00,
2013-03-20 22:00:00,59.0,38.0,29.95,SSW,207,7.0,-999.0,45,-99.99,,,0.00,weatherlink.com 1.10,2013-03-21 05:00:00,
2013-03-20 22:15:00,58.7,38.0,29.94,West,267,12.0,-999.0,47,-99.99,,,0.00,weatherlink.com 1.10,2013-03-21 05:15:00,
2013-03-20 22:30:00,58.0,39.0,29.93,WSW,256,11.0,-999.0,49,-99.99,,,0.00,weatherlink.com 1.10,2013-03-21 05:30:00,
2013-03-20 22:45:00,58.0,38.0,29.94,West,266,10.0,-999.0,48,-99.99,,,0.00,weatherlink.com 1.10,2013-03-21 05:45:00,
2013-03-20 23:00:00,58.3,37.0,29.94,WSW,248,6.0,-999.0,45,-99.99,,,0.00,weatherlink.com 1.10,2013-03-21 06:00:00,
2013-03-20 23:15:00,58.1,36.0,29.93,WSW,257,11.0,-999.0,44,-99.99,,,0.00,weatherlink.com 1.10,2013-03-21 06:15:00,
2013-03-20 23:30:00,58.0,36.0,29.93,WSW,237,9.0,-999.0,44,-99.99,,,0.00,weatherlink.com 1.10,2013-03-21 06:30:00,
2013-03-20 23:45:00,58.0,37.0,29.92,WSW,245,11.0,-999.0,45,-99.99,,,0.00,weatherlink.com 1.10,2013-03-21 06:45:00,